[[{"header":{"parameterUnit":"m.s-1","parameterCategory":1,"la1":30.2991,"la2":30.254,"lo1":-89.0895,"lo2":-89.0444,"dy":0.0017,"dx":0.0017,"nx":28,"ny":28,"refTime":"2023-11-20T09:00:00:Z","depth":0,"parameterNumber":2,"parameterNumberName":"U-component_of_WINDS"},"data":[0,0,0,0,0,0,0,0,0,0,0,0,0,0,0,0,0,0,0,0,0,0,0,0,0,0,0,0,0,0,0,0,0,0,0,0,0,0,0,0,0,0,0,0,0,0,0,0,0,0,0,0,0,0,0,0,0,0,-2.0343,-2.0343,0,-2.035,-2.0351,-2.0351,-2.0259,-2.0257,-2.0254,-2.0252,-2.026,-2.0262,-2.0265,0,0,0,0,0,0,0,0,0,0,0,0,0,-2.025,-2.0253,-2.0343,-2.0343,-2.0343,-2.035,-2.0351,-2.0351,-2.026,-2.0257,-2.0254,-2.0251,-2.0259,-2.0262,-2.0265,0,0,0,0,0,0,0,0,0,0,0,0,0,-2.0278,-2.0253,-2.0343,-2.0299,-2.0295,-2.035,-2.0351,-2.0351,-2.026,-2.0257,-2.0253,-2.025,-2.0258,-2.0262,-2.0266,-2.0364,0,0,-2.0277,-2.0279,0,0,0,0,0,0,0,0,-2.0276,-2.0281,-2.0305,-2.0302,-2.0298,-2.03,-2.0321,-2.0355,-2.0261,-2.0274,-2.0252,-2.0248,-2.0276,-2.0278,-2.0288,-2.0364,-2.0365,-2.0278,-2.028,-2.0282,-2.0283,0,0,0,0,0,0,0,-2.0274,-2.028,-2.0346,-2.0306,-2.0301,-2.0279,-2.0278,-2.0327,-2.0296,-2.0272,-2.0266,-2.0268,-2.0274,-2.0285,-2.0288,-2.0365,-2.0278,-2.0281,-2.0283,-2.0285,-2.0523,-2.0526,0,0,0,0,0,0,-2.0278,-2.0279,-2.0346,-2.0346,-2.0277,-2.0283,-2.0283,-2.0303,-2.0295,-2.029,-2.0271,-2.0263,-2.028,-2.0283,-2.0288,-2.0402,-2.0282,-2.0285,-2.0287,-2.0519,-2.0524,-2.0528,0,0,0,0,0,0,-2.0277,-2.0285,-2.0345,-2.0311,-2.0317,-2.0289,-2.0312,-2.0305,-2.0316,-2.0294,-2.0288,-2.0288,-2.0277,-2.0282,-2.0346,-2.0401,-2.0287,-2.029,-2.0514,-2.052,-2.0526,-2.0632,0,0,0,0,0,0,-2.0275,-2.0285,-2.0322,-2.0312,-2.0319,-2.0403,-2.0316,-2.0308,-2.0323,-2.0313,-2.0308,-2.0304,-2.0275,-2.0341,-2.035,-2.0404,-2.0293,-2.0509,-2.0517,-2.0524,-2.0624,-2.0641,-2.0656,0,0,0,0,0,-2.0272,-2.0352,-2.0324,-2.0333,-2.0364,-2.0407,-2.041,-2.0375,-2.0328,-2.0365,-2.0351,-2.0304,-2.0394,-2.0348,-2.0357,-2.0414,-2.0505,-2.0514,-2.0523,-2.0616,-2.0638,-2.0656,0,0,0,0,0,0,-2.0368,-2.035,-2.0319,-2.0398,-2.0405,-2.0391,-2.0436,-2.0399,-2.0419,-2.0409,-2.0364,-2.0364,-2.0435,-2.0431,-2.038,-2.0509,-2.0441,-2.0453,-2.0509,-2.0529,-2.0545,-2.0544,-2.0296,0,0,0,0,0,-2.0399,-2.0435,-2.0416,-2.0488,-2.0493,-2.0465,-2.0482,-2.0454,-2.0459,-2.0461,-2.0452,-2.0458,-2.0488,-2.0508,-2.0534,-2.0623,-2.0621,-2.0667,-2.0683,-2.0697,-2.0707,-2.0753,-2.0774,-2.0558,-2.0558,-2.0557,0,0,-2.0462,-2.0457,-2.0482,-2.0508,-2.0509,-2.0547,-2.0468,-2.0511,-2.0539,-2.0468,-2.0527,-2.0521,-2.0525,-2.0602,-2.0635,-2.0601,-2.0766,-2.0708,-2.0719,-2.0722,-2.0765,-2.0785,-2.0803,-2.0564,-2.0563,-2.0562,0,0,-2.0597,-2.0597,-2.0656,-2.066,-2.0664,-2.0645,-2.0659,-2.0652,-2.0645,-2.0704,-2.0651,-2.0684,-2.0736,-2.0741,-2.0751,-2.089,-2.0848,-2.09,-2.0984,-2.103,-2.1047,-2.1062,-2.1111,-2.113,-2.091,-2.091,-2.091,0,-2.0675,-2.073,-2.0692,-2.0739,-2.0752,-2.069,-2.075,-2.0756,-2.0768,-2.0779,-2.074,-2.0804,-2.0803,-2.088,-2.0914,-2.0924,-2.0939,-2.0899,-2.1048,-2.1063,-2.1076,-2.1122,-2.1141,-2.0916,-2.0916,-2.0915,-2.0914,0,-2.0826,-2.0866,-2.0914,-2.0927,-2.0946,-2.1,-2.0969,-2.0993,-2.0964,-2.0949,-2.1011,-2.1007,-2.1031,-2.1048,-2.102,-2.1122,-2.11,-2.1056,-2.0986,-2.1103,-2.1146,-2.1164,-2.0925,-2.0923,-2.0921,-2.092,0,0,-2.1021,-2.1013,-2.1031,-2.1037,-2.1038,-2.1067,-2.1119,-2.1143,-2.1164,-2.1175,-2.1217,-2.1263,-2.1222,-2.1233,-2.1206,-2.1246,-2.1356,-2.1197,-2.1196,-2.1226,-2.1468,-2.15,-2.1522,-2.1329,-2.1332,-2.1335,-2.1467,0,-2.1151,-2.1238,-2.1206,-2.1295,-2.1331,-2.1273,-2.1318,-2.1323,-2.1311,-2.134,-2.1327,-2.136,-2.1304,-2.131,-2.1348,-2.1335,-2.1404,-2.1325,-2.1367,-2.1369,-2.1367,-2.1544,-2.1578,-2.1703,-2.1484,-2.1486,-2.1488,0,-2.1315,-2.1333,-2.1426,-2.1421,-2.1435,-2.1476,-2.1495,-2.1524,-2.1529,-2.1518,-2.1531,-2.1495,-2.1545,-2.1477,-2.1546,-2.1493,-2.1509,-2.1505,-2.1509,-2.1511,-2.1435,-2.155,-2.1742,-2.1761,-2.1515,-2.1512,-2.1511,0,-2.1447,-2.1495,-2.1557,-2.1563,-2.1559,-2.1589,-2.1589,-2.159,-2.1607,-2.1625,-2.1635,-2.1658,-2.1671,-2.169,-2.1662,-2.1615,-2.1735,-2.1664,-2.1726,-2.1727,-2.1753,-2.1751,-2.195,-2.1765,-2.1765,-2.1764,-2.1764,0,-2.1596,-2.1655,-2.1616,-2.1654,-2.1718,-2.1681,-2.1746,-2.1739,-2.1742,-2.1777,-2.1729,-2.1764,-2.1724,-2.1756,-2.1734,-2.1794,-2.18,-2.1792,-2.1785,-2.1796,-2.1797,-2.1805,-2.1795,-2.1769,-2.1768,-2.1767,-2.1766,0,-2.1753,-2.173,-2.1793,-2.1784,-2.1783,-2.1832,-2.1824,-2.1859,-2.1844,-2.189,-2.1899,-2.1875,-2.1909,-2.1883,-2.1917,-2.1902,-2.1982,-2.1963,-2.198,-2.1974,-2.2037,-2.2032,-2.2247,-2.2273,-2.2073,-2.2074,-2.2076,0,-2.1849,-2.1893,-2.189,-2.191,-2.1913,-2.1947,-2.1964,-2.1929,-2.1949,-2.1959,-2.1993,-2.2023,-2.2045,-2.2103,-2.2089,-2.2115,-2.2096,-2.217,-2.2099,-2.2109,-2.2096,-2.2093,-2.2098,-2.2184,-2.2186,-2.2188,-2.2189,0,-2.2022,-2.2008,-2.2035,-2.2058,-2.208,-2.2096,-2.2108,-2.2128,-2.2093,-2.2118,-2.2152,-2.217,-2.2205,-2.2235,-2.2256,-2.2256,-2.2217,-2.2212,-2.2228,-2.2238,-2.2246,-2.2242,-2.2018,-2.2207,-2.2205,-2.2204,-2.2203,-2.2202,-2.2151,-2.2188,-2.2191,-2.2222,-2.2228,-2.2241,-2.2274,-2.2263,-2.2291,-2.2317,-2.2295,-2.2337,-2.2341,-2.2366,-2.237,-2.2403,-2.2372,-2.2395,-2.24,-2.2406,-2.2415,-2.2242,-2.2406,-2.2406,-2.2405,-2.2405,-2.2405,0,-2.232,-2.232,-2.2349,-2.2369,-2.2394,-2.2356,-2.2368,-2.2391,-2.2428,-2.2436,-2.2459,-2.2499,-2.2529,-2.2519,-2.2545,-2.2573,-2.2556,-2.2581,-2.2578,-2.2578,-2.2441,-2.2424,-2.2594,-2.2594,-2.2594,-2.2594,-2.2594,-2.2594,-2.2411,-2.2471,-2.2459,-2.2521,-2.252,-2.2561,-2.2571,-2.2583,-2.2589,-2.2636,-2.2661,-2.2654,-2.2654,-2.268,-2.2706,-2.2702,-2.2714,-2.2745,-2.2735,-2.2607,-2.2588,-2.257,-2.2554,-2.2748,-2.2749,-2.2869,-2.2871,-2.2871]},{"header":{"parameterUnit":"m.s-1","parameterCategory":1,"la1":30.2991,"la2":30.254,"lo1":-89.0895,"lo2":-89.0444,"dy":0.0017,"dx":0.0017,"nx":28,"ny":28,"refTime":"2023-11-20T09:00:00:Z","depth":0,"parameterNumber":3,"parameterNumberName":"V-component_of_WINDS"},"data":[0,0,0,0,0,0,0,0,0,0,0,0,0,0,0,0,0,0,0,0,0,0,0,0,0,0,0,0,0,0,0,0,0,0,0,0,0,0,0,0,0,0,0,0,0,0,0,0,0,0,0,0,0,0,0,0,0,0,-1.1094,-1.1094,0,-1.1055,-1.1055,-1.1054,-1.107,-1.1071,-1.1072,-1.1073,-1.1029,-1.1027,-1.1025,0,0,0,0,0,0,0,0,0,0,0,0,0,-1.1177,-1.1175,-1.1094,-1.1094,-1.1093,-1.1055,-1.1055,-1.1054,-1.107,-1.1071,-1.1072,-1.1073,-1.103,-1.1028,-1.1025,0,0,0,0,0,0,0,0,0,0,0,0,0,-1.1139,-1.1175,-1.1094,-1.1096,-1.1096,-1.1055,-1.1055,-1.1054,-1.1069,-1.1071,-1.1072,-1.1074,-1.1031,-1.1028,-1.1025,-1.0978,0,0,-1.1016,-1.1014,0,0,0,0,0,0,0,0,-1.1142,-1.1136,-1.1096,-1.1096,-1.1096,-1.1069,-1.1068,-1.1028,-1.1069,-1.1079,-1.1073,-1.1074,-1.1041,-1.1037,-1.1027,-1.0976,-1.0974,-1.1015,-1.1014,-1.1012,-1.1011,0,0,0,0,0,0,0,-1.1144,-1.1138,-1.1078,-1.1096,-1.1095,-1.1098,-1.1094,-1.106,-1.1053,-1.1079,-1.108,-1.1075,-1.1041,-1.103,-1.1026,-1.0974,-1.1015,-1.1013,-1.1011,-1.101,-1.0879,-1.0877,0,0,0,0,0,0,-1.1147,-1.114,-1.108,-1.1077,-1.1123,-1.1095,-1.1091,-1.1076,-1.1053,-1.1051,-1.1074,-1.1076,-1.1034,-1.1029,-1.1024,-1.0966,-1.1012,-1.1009,-1.1008,-1.088,-1.0878,-1.0876,0,0,0,0,0,0,-1.1149,-1.1142,-1.1081,-1.1109,-1.1101,-1.1092,-1.1075,-1.1074,-1.1063,-1.105,-1.1048,-1.1064,-1.1035,-1.1029,-1.0989,-1.0964,-1.1008,-1.1005,-1.0882,-1.088,-1.0877,-1.0849,0,0,0,0,0,0,-1.1151,-1.1142,-1.1126,-1.1109,-1.11,-1.1048,-1.1074,-1.1073,-1.1058,-1.1061,-1.104,-1.1038,-1.1036,-1.0993,-1.0986,-1.0961,-1.1003,-1.0884,-1.0881,-1.0878,-1.0852,-1.0846,-1.0841,0,0,0,0,0,-1.1154,-1.112,-1.1125,-1.1118,-1.108,-1.1047,-1.1042,-1.1041,-1.1056,-1.1039,-1.1029,-1.1038,-1.0969,-1.0989,-1.0981,-1.0955,-1.0886,-1.0882,-1.0878,-1.0855,-1.0847,-1.0841,0,0,0,0,0,0,-1.1135,-1.1118,-1.1124,-1.1083,-1.1066,-1.105,-1.1028,-1.1033,-1.1011,-1.1014,-1.1013,-1.1008,-1.0966,-1.0957,-1.098,-1.0906,-1.0929,-1.0924,-1.0914,-1.0907,-1.0901,-1.0904,-1.1,0,0,0,0,0,-1.1126,-1.1102,-1.1088,-1.1053,-1.1044,-1.1037,-1.1023,-1.1024,-1.1006,-1.0999,-1.0987,-1.0968,-1.0941,-1.0924,-1.0899,-1.0851,-1.0845,-1.0829,-1.0823,-1.0818,-1.0813,-1.0783,-1.0775,-1.0864,-1.0864,-1.0864,0,0,-1.1107,-1.1095,-1.108,-1.1049,-1.1036,-1.1009,-1.1031,-1.1003,-1.0982,-1.0994,-1.0955,-1.0945,-1.0924,-1.0879,-1.0859,-1.087,-1.0787,-1.0814,-1.081,-1.0807,-1.0779,-1.077,-1.0763,-1.0862,-1.0862,-1.0862,0,0,-1.1058,-1.1048,-1.1016,-1.1002,-1.0982,-1.0977,-1.0969,-1.0951,-1.0945,-1.0907,-1.0914,-1.0888,-1.0844,-1.0827,-1.0813,-1.0754,-1.076,-1.0746,-1.0715,-1.0686,-1.0679,-1.0673,-1.0649,-1.0641,-1.0741,-1.0741,-1.0741,0,-1.1037,-1.0998,-1.0999,-1.0969,-1.0953,-1.0963,-1.0929,-1.0916,-1.0888,-1.0876,-1.0889,-1.0831,-1.0818,-1.0767,-1.0752,-1.0742,-1.073,-1.0748,-1.068,-1.0674,-1.0668,-1.0645,-1.0637,-1.0739,-1.0739,-1.0739,-1.0739,0,-1.0971,-1.0944,-1.092,-1.0893,-1.0876,-1.0844,-1.0838,-1.0819,-1.082,-1.0813,-1.0771,-1.0755,-1.0726,-1.0714,-1.0715,-1.0662,-1.0669,-1.0681,-1.0704,-1.0658,-1.0636,-1.0628,-1.0736,-1.0737,-1.0738,-1.0738,0,0,-1.091,-1.0882,-1.0873,-1.086,-1.0837,-1.0815,-1.0782,-1.0754,-1.0736,-1.0716,-1.0687,-1.0647,-1.0657,-1.0641,-1.064,-1.0615,-1.0565,-1.0629,-1.0629,-1.0615,-1.0501,-1.0491,-1.0481,-1.0569,-1.0568,-1.0566,-1.0502,0,-1.0858,-1.0802,-1.08,-1.0747,-1.072,-1.0727,-1.0698,-1.068,-1.0671,-1.0645,-1.0635,-1.0606,-1.0623,-1.0613,-1.0588,-1.0576,-1.0542,-1.0581,-1.0539,-1.0537,-1.0543,-1.0471,-1.046,-1.0401,-1.0494,-1.0493,-1.0492,0,-1.079,-1.0767,-1.0712,-1.069,-1.0679,-1.0653,-1.0624,-1.0601,-1.0578,-1.0573,-1.0554,-1.0556,-1.0519,-1.0543,-1.0491,-1.0518,-1.05,-1.0491,-1.0489,-1.0483,-1.0511,-1.0461,-1.0382,-1.0373,-1.0479,-1.048,-1.0481,0,-1.0748,-1.0703,-1.0664,-1.0652,-1.0626,-1.0607,-1.0595,-1.0575,-1.0556,-1.0531,-1.0518,-1.0489,-1.0472,-1.0448,-1.0441,-1.046,-1.0387,-1.0412,-1.038,-1.038,-1.0364,-1.0364,-1.0279,-1.0356,-1.0356,-1.0356,-1.0356,0,-1.0689,-1.0654,-1.0644,-1.062,-1.058,-1.0577,-1.0536,-1.0526,-1.0506,-1.0478,-1.0482,-1.0455,-1.0448,-1.0418,-1.0412,-1.0368,-1.0361,-1.0354,-1.0352,-1.0352,-1.0353,-1.034,-1.0343,-1.0353,-1.0354,-1.0354,-1.0355,0,-1.0635,-1.0627,-1.0584,-1.0562,-1.0556,-1.0527,-1.0507,-1.0482,-1.0474,-1.0437,-1.0428,-1.0414,-1.0379,-1.0369,-1.0328,-1.0323,-1.027,-1.0274,-1.0278,-1.0277,-1.0245,-1.0247,-1.0146,-1.0131,-1.022,-1.0219,-1.0218,0,-1.0597,-1.057,-1.0545,-1.0526,-1.0514,-1.0484,-1.0465,-1.046,-1.0439,-1.041,-1.0387,-1.0353,-1.0326,-1.0269,-1.0253,-1.022,-1.0221,-1.0188,-1.0217,-1.0216,-1.0218,-1.0219,-1.0214,-1.0183,-1.0182,-1.0181,-1.018,0,-1.0529,-1.0526,-1.0499,-1.047,-1.0447,-1.0423,-1.0401,-1.0385,-1.0376,-1.0352,-1.0317,-1.0295,-1.0252,-1.0216,-1.0182,-1.0167,-1.0171,-1.0171,-1.0162,-1.0161,-1.0163,-1.0159,-1.0261,-1.0174,-1.0174,-1.0175,-1.0175,-1.0175,-1.0481,-1.0456,-1.0434,-1.0402,-1.0384,-1.0362,-1.0337,-1.0324,-1.0295,-1.026,-1.0258,-1.0218,-1.0193,-1.0148,-1.0131,-1.0098,-1.0107,-1.0094,-1.009,-1.0087,-1.0083,-1.017,-1.0092,-1.0092,-1.0092,-1.0092,-1.0093,0,-1.0411,-1.0397,-1.0368,-1.0336,-1.031,-1.0317,-1.0291,-1.0268,-1.0234,-1.0211,-1.0183,-1.014,-1.0104,-1.0085,-1.005,-1.0027,-1.0027,-1.0017,-1.0018,-1.0013,-1.0078,-1.0088,-1.0017,-1.0017,-1.0017,-1.0017,-1.0017,-1.0017,-1.0372,-1.033,-1.0323,-1.027,-1.0255,-1.0217,-1.0201,-1.018,-1.0161,-1.0113,-1.0084,-1.0072,-1.0049,-1.0011,-0.9978,-0.9973,-0.9958,-0.9946,-0.9942,-1.0002,-1.001,-1.0017,-1.0027,-0.9944,-0.9944,-0.9881,-0.988,-0.9879]}]]